الصفحة الرئيسية
صور الأقمار الصناعية توقعات الطقس لمدة 15 يوممناخالتوقعات البحرية إعصار برق مطارأسئلة وأجوبة النشرة الإخبارية حول
طقس : أوروبا أفريقيا أمريكا الشمالية أمريكا الجنوبية آسيا أستراليا-أوقيانوسيا آخرون
لغات جهة اتصال

مدينة همدان, إيران

دائرة عرض: 34-52-05N, خط طول: 048-33-08E, ارتفاع: 1757 m


METAR: OIHH 231552Z 00000KT CAVOK 20/M01 Q1018
TAF: فقد

زمن: 19:51 (16:21 UTC)

مراقبة الطقس الحالي

تاريخ و وقت الإصدار 29 دقيقة قبل الساعة 15:52 UTC  
ريح أي الرياح هادئة
درجة الحرارة 20°C
الرطوبة 24%
ضغط 1018 hPa
الرؤية 10 km أو أكثر
الغيوم لا تقل 1500 م وليس السحاب الأسود

تغيير وحدة
المعلومات الواردة في هذا الموقع يخضع إخلاء
طقس : أوروبا أفريقيا أمريكا الشمالية أمريكا الجنوبية آسيا أستراليا-أوقيانوسيا آخرون
صور الأقمار الصناعية توقعات الطقس لمدة 15 يوممناخالتوقعات البحرية إعصار برق مطارأسئلة وأجوبة لغات جهة اتصال النشرة الإخبارية حول